VA3DLF Weather Reports


time (UTC)temp
C
wind
direction
speed
KPH
gust
KPH
rain 1hr
cm
rain 24hr
cm
rain mn
cm
humidity
%
barometer
mb
20180225213955 7 235 17.7 17.7 0.00 0.00 6.86
20180225213455 7 284 24.1 19.3 0.00 0.00 6.86
20180225212955 7 245 17.7 12.9 0.00 0.00 6.86
20180225211452 7 263 17.7 19.3 0.00 0.00 6.86
20180225210454 8 238 20.9 24.1 0.00 0.00 6.86
20180225203957 8 273 16.1 12.9 0.00 0.00 6.86
20180225203451 8 240 16.1 19.3 0.00 0.00 6.86
20180225202947 8 222 19.3 17.7 0.00 0.00 6.86
20180225202447 8 236 14.5 14.5 0.00 0.00 6.86
20180225201948 8 246 19.3 27.4 0.00 0.00 6.86
20180225200946 8 256 19.3 22.5 0.00 0.00 6.86
20180225200447 8 256 14.5 14.5 0.00 0.00 6.86
20180225195945 8 264 22.5 17.7 0.00 0.00 6.86
20180225194945 8 236 20.9 22.5 0.00 0.00 6.86
20180225194444 8 264 20.9 30.6 0.00 0.00 6.86
20180225193943 9 256 24.1 14.5 0.00 0.00 6.86
20180225193517 8 249 19.3 29.0 0.00 0.00 6.86
20180225193444 8 249 19.3 29.0 0.00 0.00 6.86
20180225192944 8 246 22.5 22.5 0.00 0.00 6.86
20180225192442 8 224 16.1 12.9 0.00 0.00 6.86
20180225191943 8 239 17.7 17.7 0.00 0.00 6.86
20180225191440 7 248 14.5 9.7 0.00 0.00 6.86
20180225190001 5 240 14.5 11.3 0.00 0.00 6.86
20180225185438 5 210 12.9 19.3 0.00 0.00 6.86
20180225184938 5 184 17.7 16.1 0.00 0.00 6.86
20180225184437 5 222 22.5 17.7 0.00 0.00 6.86
20180225183935 5 218 22.5 16.1 0.00 0.00 6.86
20180225183453 5 242 16.1 17.7 0.00 0.00 6.86
20180225182934 5 160 17.7 20.9 0.00 0.00 6.86
20180225182434 5 217 19.3 20.9 0.00 0.00 6.86
20180225180931 5 210 12.9 27.4 0.00 0.00 6.86
20180225175930 5 217 22.5 37.0 0.00 0.00 6.86
20180225174958 5 214 20.9 16.1 0.25 0.00 6.86
20180225174430 5 194 24.1 27.4 0.25 0.00 6.86
20180225172926 5 225 20.9 22.5 0.25 0.00 6.86
20180225172426 5 204 20.9 20.9 0.25 0.00 6.86
20180225171424 5 195 20.9 27.4 0.25 0.00 6.86
20180225170924 5 191 27.4 19.3 0.25 0.00 6.86
20180225170424 5 217 19.3 20.9 0.25 0.00 6.86
20180225165923 5 219 19.3 33.8 0.25 0.00 6.86
20180225165422 4 229 16.1 17.7 2.29 0.00 6.86
20180225164923 4 221 19.3 24.1 2.29 0.00 6.86
20180225164420 4 190 24.1 14.5 2.29 0.00 6.86
20180225163421 4 211 25.7 30.6 2.29 0.00 6.86
20180225162920 4 235 27.4 29.0 2.29 0.00 6.86
20180225162420 3 226 22.5 11.3 2.29 0.00 6.86
20180225161920 3 201 29.0 20.9 2.29 0.00 6.86
20180225161417 3 211 19.3 25.7 2.29 0.00 6.86
20180225160918 3 173 20.9 16.1 2.29 0.00 6.86
20180225155417 2 204 17.7 20.9 2.03 0.00 6.60
20180225154917 2 214 14.5 16.1 2.03 0.00 6.35
20180225154414 2 200 16.1 16.1 2.03 0.00 6.35
20180225153415 2 210 19.3 27.4 2.03 0.00 5.84
20180225152912 2 190 24.1 25.7 2.03 0.00 5.84
20180225152413 2 195 19.3 20.9 2.03 0.00 5.59
20180225150911 2 159 16.1 16.1 2.03 0.00 5.08
20180225150411 2 219 19.3 19.3 2.03 0.00 4.83
20180225145909 2 191 19.3 20.9 2.03 0.00 4.57
20180225145411 2 190 20.9 30.6 1.78 0.00 4.32
20180225144910 2 162 16.1 24.1 1.78 0.00 4.06
20180225144407 2 132 11.3 14.5 1.78 0.00 3.81
20180225143908 2 174 22.5 17.7 1.78 0.00 3.81
20180225142905 1 186 17.7 27.4 1.78 0.00 3.56
20180225141906 1 155 17.7 12.9 1.78 0.00 3.05
20180225141402 1 184 14.5 16.1 1.78 0.00 2.79
20180225140904 1 155 14.5 12.9 1.78 0.00 2.79
20180225140403 1 146 12.9 14.5 1.78 0.00 2.29
20180225135900 1 159 14.5 14.5 1.78 0.00 2.29
20180225135420 0 156 12.9 17.7 0.25 0.00 2.29
20180225134903 0 131 12.9 8.0 0.25 0.00 1.78
20180225134401 0 207 8.0 12.9 0.25 0.00 1.78
20180225132858 0 231 9.7 6.4 0.25 0.00 1.27
20180225132420 0 129 8.0 8.0 0.25 0.00 1.27
20180225131859 0 174 9.7 8.0 0.25 0.00 1.27
20180225131357 0 97 8.0 9.7 0.25 0.00 1.27
20180225130856 0 80 6.4 3.2 0.25 0.00 0.76
20180225130356 0 170 8.0 8.0 0.25 0.00 0.76
20180225125854 0 97 8.0 9.7 0.25 0.00 0.51
20180225124854 0 122 6.4 4.8 0.00 0.00 0.25
20180225124355 0 107 8.0 8.0 0.00 0.00 0.25
20180225123854 0 128 6.4 4.8 0.00 0.00 0.25
20180225122851 0 155 8.0 8.0 0.00 0.00 0.25
20180225121855 0 103 3.2 6.4 0.00 0.00 0.25
20180225120949 0 79 8.0 6.4 0.00 0.00 0.25
20180225120849 0 79 8.0 6.4 0.00 0.00 0.25
20180225115846 0 113 9.7 9.7 0.00 0.00 0.25
20180225115347 0 86 9.7 9.7 0.25 0.00 0.25
20180225115001 0 96 8.0 6.4 0.25 0.00 0.25
20180225114848 0 96 8.0 6.4 0.25 0.00 0.25
20180225114348 0 51 11.3 9.7 0.25 0.00 0.25
20180225113846 0 49 11.3 9.7 0.25 0.00 0.25
20180225113416 0 108 11.3 6.4 0.25 0.00 0.25
20180225113345 0 108 11.3 6.4 0.25 0.00 0.25
20180225112344 0 118 11.3 9.7 0.25 0.00 0.25
20180225111915 0 128 14.5 8.0 0.25 0.00 0.25
20180225111844 0 128 14.5 8.0 0.25 0.00 0.25
20180225111341 0 75 16.1 8.0 0.25 0.00 0.25
20180225110842 0 110 11.3 14.5 0.25 0.00 0.25
20180225110343 0 132 12.9 14.5 0.25 0.00 0.25
20180225105339 0 170 17.7 11.3 0.00 0.00 0.25
20180225104840 0 84 14.5 12.9 0.00 0.00 0.00
20180225103909 0 117 12.9 11.3 0.00 0.00 0.00
20180225103838 0 117 12.9 11.3 0.00 0.00 0.00
20180225102836 0 111 14.5 17.7 0.00 0.00 0.00
20180225101836 0 101 17.7 19.3 0.00 0.00 0.00
20180225101334 0 79 16.1 11.3 0.00 0.00 0.00
20180225100910 0 82 12.9 11.3 0.00 0.00 0.00
20180225100838 0 82 12.9 11.3 0.00 0.00 0.00
20180225095832 0 90 12.9 16.1 0.00 0.00 0.00
20180225095332 -1 138 8.0 6.4 0.00 0.00 0.00
20180225094917 -1 97 16.1 12.9 0.00 0.00 0.00
20180225094832 -1 97 16.1 12.9 0.00 0.00 0.00
20180225094331 -1 113 12.9 20.9 0.00 0.00 0.00
20180225093843 -1 117 8.0 0.0 0.00 0.00 0.00
20180225093331 -1 131 16.1 9.7 0.00 0.00 0.00
20180225092913 -1 94 16.1 11.3 0.00 0.00 0.00
20180225092828 -1 94 16.1 11.3 0.00 0.00 0.00
20180225092329 -1 76 12.9 14.5 0.00 0.00 0.00
20180225091326 -1 70 14.5 14.5 0.00 0.00 0.00
20180225085824 -1 131 12.9 6.4 0.00 0.00 0.00
20180225085325 -1 142 11.3 14.5 0.00 0.00 0.00
20180225084825 -1 103 14.5 12.9 0.00 0.00 0.00
20180225084323 -1 100 16.1 14.5 0.00 0.00 0.00
20180225083823 -1 121 14.5 16.1 0.00 0.00 0.00
20180225083324 -1 103 9.7 4.8 0.00 0.00 0.00
20180225082821 -1 114 14.5 16.1 0.00 0.00 0.00
20180225081821 -1 111 12.9 19.3 0.00 0.00 0.00
20180225081319 -1 84 14.5 14.5 0.00 0.00 0.00
20180225080819 -1 87 11.3 12.9 0.00 0.00 0.00
20180225075818 -1 110 14.5 12.9 0.00 0.00 0.00
20180225075317 -1 97 11.3 12.9 0.00 0.00 0.00
20180225074818 -1 93 8.0 11.3 0.00 0.00 0.00
20180225073817 -1 87 12.9 17.7 0.00 0.00 0.00
20180225073316 -1 120 11.3 9.7 0.00 0.00 0.00
20180225072814 -1 101 9.7 11.3 0.00 0.00 0.00
20180225072314 -1 100 11.3 12.9 0.00 0.00 0.00
20180225071813 -1 84 12.9 14.5 0.00 0.00 0.00
20180225071310 -1 55 12.9 12.9 0.00 0.00 0.00
20180225070810 -1 93 9.7 9.7 0.00 0.00 0.00
20180225070309 -1 120 14.5 14.5 0.00 0.00 0.00
20180225065807 -1 105 14.5 12.9 0.00 0.00 0.00
20180225065307 -1 80 12.9 11.3 0.00 0.00 0.00
20180225064807 -1 115 12.9 11.3 0.00 0.00 0.00
20180225062301 -1 84 9.7 11.3 0.00 0.00 0.00
20180225061801 -1 87 9.7 9.7 0.00 0.00 0.00
20180225061259 -1 55 9.7 9.7 0.00 0.00 0.00
20180225060759 -1 118 9.7 17.7 0.00 0.00 0.00
20180225055757 -1 125 9.7 11.3 0.00 0.00 0.00
20180225055257 -1 89 9.7 9.7 0.00 0.00 0.00
20180225054758 -1 65 11.3 12.9 0.00 0.00 0.00
20180225053755 -1 76 11.3 9.7 0.00 0.00 0.00
20180225052253 -1 108 8.0 11.3 0.00 0.00 0.00
20180225051753 -1 68 11.3 9.7 0.00 0.00 0.00
20180225045747 -1 79 11.3 12.9 0.00 0.00 0.00
20180225044748 -1 97 9.7 4.8 0.00 4.83 0.00
20180225044245 -1 120 4.8 6.4 0.00 4.83 0.00
20180225042743 -1 90 8.0 4.8 0.00 4.83 0.00
20180225041241 -1 107 6.4 9.7 0.00 4.83 0.00
20180225040742 -1 143 6.4 4.8 0.00 4.83 0.00
20180225040242 -1 132 8.0 6.4 0.00 4.83 0.00
20180225035740 -1 86 9.7 3.2 0.00 4.83 0.00
20180225035330 -1 128 9.7 6.4 0.00 4.83 0.00
20180225035240 -1 128 9.7 6.4 0.00 4.83 0.00
20180225034238 -1 113 9.7 12.9 0.00 4.83 0.00
20180225033239 -1 89 9.7 4.8 0.00 4.83 0.00
20180225032736 -1 121 11.3 6.4 0.00 4.83 0.00
20180225031234 -1 62 9.7 9.7 0.00 4.83 0.00
20180225030734 -1 94 8.0 12.9 0.00 4.83 0.00
20180225030235 -1 96 9.7 9.7 0.00 4.83 0.00
20180225025732 -1 42 9.7 6.4 0.00 4.83 0.00
20180225025233 -1 113 9.7 8.0 0.00 4.83 0.00
20180225024734 -1 58 9.7 8.0 0.00 4.83 0.00
20180225023229 -1 90 6.4 11.3 0.00 4.83 0.00
20180225022727 -1 111 8.0 6.4 0.00 4.83 0.00
20180225021742 -1 103 3.2 6.4 0.00 4.83 0.00
20180225021225 -1 70 8.0 9.7 0.00 4.83 0.00
20180225020759 -1 68 8.0 6.4 0.00 4.83 0.00
20180225020726 -1 68 8.0 6.4 0.00 4.83 0.00
20180225020226 -1 108 8.0 6.4 0.00 4.83 0.00
20180225015726 -1 104 11.3 12.9 0.00 4.83 0.00
20180225015223 -1 104 8.0 4.8 0.00 4.83 0.00
20180225014221 -1 80 6.4 4.8 0.00 4.83 0.00
20180225013739 -1 107 4.8 1.6 0.00 4.83 0.00
20180225013222 -1 113 3.2 8.0 0.00 4.83 0.00
20180225012720 0 110 4.8 4.8 0.00 4.83 0.00
20180225011803 0 77 3.2 3.2 0.00 4.83 0.00
20180225011721 0 77 3.2 3.2 0.00 4.83 0.00
20180225011217 0 48 4.8 4.8 0.00 4.83 0.00
20180225010733 0 128 8.0 4.8 0.00 4.83 0.00
20180225010259 0 105 4.8 4.8 0.00 4.83 0.00
20180225010218 0 105 4.8 4.8 0.00 4.83 0.00
20180225005716 0 105 8.0 4.8 0.00 4.83 0.00
20180225004803 0 79 8.0 3.2 0.00 4.83 0.00
20180225004716 0 79 8.0 3.2 0.00 4.83 0.00
20180225004214 0 41 6.4 4.8 0.00 4.83 0.00
20180225003715 0 56 4.8 4.8 0.00 4.83 0.00
20180225003215 0 111 9.7 8.0 0.00 4.83 0.00
20180225002715 0 129 8.0 4.8 0.00 4.83 0.00
20180225002213 0 68 6.4 6.4 0.00 4.83 0.00
20180225001714 0 48 3.2 6.4 0.00 4.83 0.00
20180225001211 0 80 6.4 4.8 0.00 4.83 0.00
20180225000212 0 84 8.0 3.2 0.00 4.83 0.00
20180224235210 1 69 6.4 6.4 0.00 4.83 0.00
20180224234211 1 53 8.0 6.4 0.00 4.83 0.00
20180224233709 1 87 4.8 6.4 0.00 4.83 0.00
20180224233209 1 63 6.4 6.4 0.00 4.83 0.00
20180224232206 2 101 9.7 6.4 0.00 4.83 0.00
20180224231726 2 52 9.7 4.8 0.00 4.83 0.00
20180224231205 2 60 6.4 4.8 0.00 4.83 0.00
20180224230206 2 107 9.7 9.7 0.00 4.83 0.00
20180224225204 2 103 6.4 8.0 0.00 4.83 0.00
20180224224710 2 101 6.4 3.2 0.00 4.83 0.00
20180224224200 2 132 6.4 6.4 0.00 4.83 0.00
20180224223800 2 73 8.0 9.7 0.00 4.83 0.00
20180224223201 2 87 4.8 11.3 0.00 4.83 0.00
20180224222658 2 60 8.0 3.2 0.00 4.83 0.00
20180224222159 2 89 4.8 3.2 0.00 4.83 0.00
20180224221157 3 53 6.4 6.4 0.00 4.83 0.00
20180224220212 3 111 4.8 9.7 0.00 4.83 0.00
20180224215656 3 63 4.8 4.8 0.00 4.83 0.00
20180224215156 3 62 6.4 6.4 0.00 4.83 0.00